This demonstration page uses our WeatherBlox Daily Observations layout. Learn more.

Left ArrowRight Arrow

34.74481, -87.66753

Hourly Observations for July 13, 2019

Temp ( °F °C ) Dew Point ( °F °C ) Humidity (%) Winds ( mph kmh ) Pressure ( in mb ) Visibility ( mi km ) Precip ( " mm )
12:21 am 00:21 Mostly Clear 79 26.1 73 22.8 82 82 Calm 29.93 1013 10 16 0.00 0.00
12:53 am 00:53 Clear 78 25.6 73 22.8 85 85 E 8 13 29.92 1013 10 16 0.00 0.00
1:53 am 01:53 Cloudy 79 26.1 73 22.8 82 82 SE 6 9 29.94 1014 10 16 0.00 0.00
2:53 am 02:53 Mostly Cloudy 78 25.6 73 22.8 85 85 SE 8 13 29.94 1014 10 16 0.00 0.00
3:53 am 03:53 Clear 77 25 73 22.8 88 88 Calm 29.93 1014 10 16 0.00 0.00
4:53 am 04:53 Clear 76 24.4 73 22.8 91 91 SE 5 7 29.94 1014 10 16 0.00 0.00
5:53 am 05:53 Sunny 75 23.9 72 22.2 90 90 SE 3 6 29.96 1015 10 16 0.00 0.00
6:53 am 06:53 Sunny 78 25.6 72 22.2 82 82 SSE 6 9 29.99 1016 10 16 0.00 0.00
7:53 am 07:53 Sunny 79 26.1 71 21.7 77 77 S 6 9 30.02 1017 10 16 0.00 0.00
8:53 am 08:53 Sunny 82 27.8 72 22.2 72 72 VRB 5 7 30.04 1017 10 16 0.00 0.00
9:53 am 09:53 Mostly Sunny 85 29.4 73 22.8 68 68 S 7 11 30.04 1017 10 16 0.00 0.00
10:53 am 10:53 Mostly Sunny 88 31.1 73 22.8 61 61 SSE 6 9 30.04 1017 10 16 0.00 0.00
11:53 am 11:53 Partly Cloudy 92 33.3 73 22.8 54 54 S 10 17 30.03 1017 10 16 0.00 0.00
12:53 pm 12:53 Partly Cloudy 89 31.7 72 22.2 57 57 SSE 8 13 30.01 1016 10 16 0.00 0.00
1:53 pm 13:53 Partly Cloudy 90 32.2 75 23.9 62 62 SSE 7 11 30.00 1016 10 16 0.00 0.03
2:53 pm 14:53 Mostly Sunny 92 33.3 72 22.2 52 52 S 8 13 30.00 1016 10 16 0.00 0.00
3:53 pm 15:53 Partly Cloudy 94 34.4 71 21.7 48 48 SW 13 20 29.99 1016 10 16 0.00 0.00
4:53 pm 16:53 Mostly Sunny 89 31.7 70 21.1 53 53 S 16 26 30.01 1016 10 16 0.00 0.00
6:53 pm 18:53 Partly Cloudy 86 30 71 21.7 61 61 S 5 7 30.06 1018 10 16 0.00 0.00
7:53 pm 19:53 Mostly Cloudy 84 28.9 72 22.2 67 67 S 6 9 30.07 1018 10 16 0.00 0.00
8:53 pm 20:53 Clear 81 27.2 73 22.8 77 77 S 5 7 30.07 1018 10 16 0.00 0.00
9:53 pm 21:53 Clear 79 26.1 73 22.8 82 82 SSE 5 7 30.08 1019 10 16 0.00 0.00
10:53 pm 22:53 Mostly Clear 78 25.6 73 22.8 85 85 E 6 9 30.10 1019 10 16 0.00 0.00
11:53 pm 23:53 Cloudy 77 25 74 23.3 90 90 E 5 7 30.11 1020 10 16 0.00 0.03

Powered by AerisWeather